| time (UTC) | temp F | wind direction | speed knots | gust knots | rain 1hr in | rain 24hr in | rain mn in | humidity % | barometer mb |
| 20260508130611 | 57 | 254 | 0.9 | 2.6 | 0.00 | 0.00 | 0.00 | 85 | 1026.5 |
| 20260508130109 | 57 | 258 | 0.9 | 6.1 | 0.00 | 0.00 | 0.00 | 85 | 1026.5 |
| 20260508125609 | 57 | 268 | 0.9 | 6.1 | 0.00 | 0.00 | 0.00 | 85 | 1026.6 |
| 20260508125111 | 57 | 201 | 0.9 | 5.2 | 0.00 | 0.00 | 0.00 | 85 | 1026.6 |
| 20260508124609 | 57 | 197 | 0.9 | 6.1 | 0.00 | 0.00 | 0.00 | 85 | 1026.6 |
| 20260508124111 | 57 | 222 | 0.9 | 6.1 | 0.00 | 0.00 | 0.00 | 85 | 1026.7 |
| 20260508123618 | 57 | 214 | 0.9 | 2.6 | 0.00 | 0.00 | 0.00 | 84 | 1026.7 |
| 20260508123610 | 57 | 229 | 0.9 | 7.0 | 0.00 | 0.00 | 0.00 | 85 | 1026.7 |
| 20260508123111 | 57 | 233 | 0.9 | 7.0 | 0.00 | 0.00 | 0.00 | 85 | 1026.7 |
| 20260508122115 | 57 | 215 | 0.9 | 4.3 | 0.00 | 0.00 | 0.00 | 84 | 1026.7 |
| 20260508122109 | 57 | 215 | 0.9 | 4.3 | 0.00 | 0.00 | 0.00 | 84 | 1026.7 |
| 20260508121111 | 57 | 237 | 0.9 | 2.6 | 0.00 | 0.00 | 0.00 | 83 | 1026.8 |
| 20260508120609 | 57 | 237 | 0.9 | 4.3 | 0.00 | 0.00 | 0.00 | 83 | 1026.7 |
| 20260508120111 | 58 | 235 | 0.9 | 4.3 | 0.00 | 0.00 | 0.00 | 83 | 1026.7 |
| 20260508115615 | 58 | 243 | 0.9 | 4.3 | 0.00 | 0.00 | 0.00 | 83 | 1026.6 |
| 20260508115609 | 58 | 243 | 0.9 | 4.3 | 0.00 | 0.00 | 0.00 | 83 | 1026.7 |
| 20260508114616 | 58 | 230 | 1.7 | 5.2 | 0.00 | 0.00 | 0.00 | 82 | 1026.6 |
| 20260508114611 | 58 | 226 | 0.9 | 4.3 | 0.00 | 0.00 | 0.00 | 83 | 1026.6 |
| 20260508113610 | 58 | 251 | 1.7 | 5.2 | 0.00 | 0.00 | 0.00 | 82 | 1026.6 |
| 20260508113109 | 58 | 243 | 1.7 | 5.2 | 0.00 | 0.00 | 0.00 | 81 | 1026.6 |
| 20260508112609 | 58 | 262 | 1.7 | 5.2 | 0.00 | 0.00 | 0.00 | 81 | 1026.5 |
| 20260508112116 | 58 | 248 | 2.6 | 6.1 | 0.00 | 0.00 | 0.00 | 80 | 1026.5 |
| 20260508112110 | 58 | 223 | 1.7 | 6.1 | 0.00 | 0.00 | 0.00 | 80 | 1026.5 |
| 20260508111739 | 58 | 222 | 1.7 | 5.2 | 0.00 | 0.00 | 0.00 | 79 | 1026.5 |
| 20260508110609 | 58 | 238 | 1.7 | 7.0 | 0.00 | 0.00 | 0.00 | 79 | 1026.4 |
| 20260508110604 | 58 | 226 | 2.6 | 7.0 | 0.00 | 0.00 | 0.00 | 79 | 1026.4 |
| 20260508105605 | 58 | 252 | 2.6 | 7.8 | 0.00 | 0.00 | 0.00 | 80 | 1026.3 |
| 20260508105107 | 58 | 195 | 1.7 | 8.7 | 0.00 | 0.00 | 0.00 | 80 | 1026.2 |
| 20260508104603 | 58 | 205 | 2.6 | 8.7 | 0.00 | 0.00 | 0.00 | 81 | 1026.2 |
| 20260508104102 | 58 | 204 | 2.6 | 8.7 | 0.00 | 0.00 | 0.00 | 81 | 1026.1 |
| 20260508103601 | 58 | 197 | 2.6 | 9.6 | 0.00 | 0.00 | 0.00 | 81 | 1026.1 |
| 20260508103105 | 58 | 201 | 2.6 | 8.7 | 0.00 | 0.00 | 0.00 | 82 | 1026.1 |
| 20260508103100 | 58 | 210 | 2.6 | 9.6 | 0.00 | 0.00 | 0.00 | 82 | 1026.2 |
| 20260508102059 | 58 | 189 | 2.6 | 8.7 | 0.00 | 0.00 | 0.00 | 82 | 1026.3 |
| 20260508101558 | 58 | 237 | 1.7 | 7.8 | 0.00 | 0.00 | 0.00 | 81 | 1026.3 |
| 20260508101059 | 58 | 225 | 1.7 | 7.8 | 0.00 | 0.00 | 0.00 | 82 | 1026.3 |
| 20260508100556 | 58 | 217 | 2.6 | 8.7 | 0.00 | 0.00 | 0.00 | 82 | 1026.2 |
| 20260508100058 | 58 | 243 | 2.6 | 8.7 | 0.00 | 0.00 | 0.00 | 82 | 1026.2 |
| 20260508095557 | 59 | 199 | 2.6 | 9.6 | 0.00 | 0.00 | 0.00 | 82 | 1026.1 |
| 20260508095057 | 58 | 168 | 3.5 | 9.6 | 0.00 | 0.00 | 0.00 | 82 | 1026.1 |
| 20260508094558 | 58 | 194 | 2.6 | 13.0 | 0.00 | 0.00 | 0.00 | 83 | 1026.0 |
| 20260508094059 | 58 | 166 | 2.6 | 13.0 | 0.00 | 0.00 | 0.00 | 83 | 1025.9 |
| 20260508093557 | 58 | 185 | 2.6 | 10.4 | 0.00 | 0.00 | 0.00 | 84 | 1025.8 |
| 20260508093057 | 58 | 235 | 2.6 | 9.6 | 0.00 | 0.00 | 0.00 | 84 | 1025.8 |
| 20260508092603 | 58 | 196 | 2.6 | 12.2 | 0.00 | 0.00 | 0.00 | 84 | 1025.7 |
| 20260508092557 | 58 | 185 | 2.6 | 11.3 | 0.00 | 0.00 | 0.00 | 84 | 1025.7 |
| 20260508091558 | 59 | 194 | 2.6 | 12.2 | 0.00 | 0.00 | 0.00 | 84 | 1025.7 |
| 20260508091057 | 58 | 206 | 2.6 | 9.6 | 0.00 | 0.00 | 0.00 | 84 | 1025.7 |
| 20260508090558 | 58 | 196 | 2.6 | 7.8 | 0.00 | 0.00 | 0.00 | 83 | 1025.7 |
| 20260508090057 | 58 | 207 | 2.6 | 10.4 | 0.00 | 0.00 | 0.00 | 84 | 1025.6 |
| 20260508085555 | 58 | 171 | 2.6 | 10.4 | 0.00 | 0.00 | 0.00 | 85 | 1025.6 |
| 20260508085102 | 58 | 210 | 1.7 | 7.8 | 0.00 | 0.00 | 0.00 | 85 | 1025.5 |
| 20260508085056 | 58 | 227 | 2.6 | 7.8 | 0.00 | 0.00 | 0.00 | 85 | 1025.6 |
| 20260508084056 | 58 | 205 | 1.7 | 7.8 | 0.00 | 0.00 | 0.00 | 85 | 1025.4 |
| 20260508083606 | 58 | 199 | 2.6 | 8.7 | 0.00 | 0.00 | 0.00 | 84 | 1025.2 |
| 20260508083555 | 58 | 162 | 1.7 | 8.7 | 0.00 | 0.00 | 0.00 | 85 | 1025.4 |
| 20260508083055 | 58 | 175 | 1.7 | 8.7 | 0.00 | 0.00 | 0.00 | 85 | 1025.3 |
| 20260508082727 | 58 | 191 | 2.6 | 8.7 | 0.00 | 0.00 | 0.00 | 84 | 1025.2 |
| 20260508081555 | 58 | 189 | 2.6 | 7.8 | 0.00 | 0.00 | 0.00 | 84 | 1025.3 |
| 20260508081104 | 58 | 193 | 3.5 | 9.6 | 0.00 | 0.00 | 0.00 | 84 | 1025.2 |
| 20260508081058 | 58 | 189 | 3.5 | 9.6 | 0.00 | 0.00 | 0.00 | 84 | 1025.2 |
| 20260508080055 | 58 | 185 | 3.5 | 8.7 | 0.00 | 0.00 | 0.00 | 83 | 1025.2 |
| 20260508075552 | 59 | 239 | 2.6 | 9.6 | 0.00 | 0.00 | 0.00 | 83 | 1025.2 |
| 20260508075054 | 59 | 189 | 2.6 | 11.3 | 0.00 | 0.00 | 0.00 | 82 | 1025.1 |
| 20260508074553 | 59 | 190 | 2.6 | 11.3 | 0.00 | 0.00 | 0.00 | 81 | 1025.0 |
| 20260508074052 | 59 | 249 | 2.6 | 9.6 | 0.00 | 0.00 | 0.00 | 80 | 1024.9 |
| 20260508073555 | 59 | 207 | 2.6 | 9.6 | 0.00 | 0.00 | 0.00 | 80 | 1024.8 |
| 20260508073053 | 59 | 185 | 2.6 | 9.6 | 0.00 | 0.00 | 0.00 | 80 | 1024.7 |
| 20260508072559 | 59 | 189 | 3.5 | 10.4 | 0.00 | 0.00 | 0.00 | 80 | 1024.6 |
| 20260508072553 | 59 | 196 | 2.6 | 8.7 | 0.00 | 0.00 | 0.00 | 80 | 1024.7 |
| 20260508072158 | 59 | 192 | 2.6 | 8.7 | 0.00 | 0.00 | 0.00 | 80 | 1024.6 |
| 20260508071717 | 59 | 203 | 3.5 | 10.4 | 0.00 | 0.00 | 0.00 | 80 | 1024.7 |
| 20260508070550 | 59 | 197 | 2.6 | 9.6 | 0.00 | 0.00 | 0.00 | 80 | 1024.7 |
| 20260508070050 | 59 | 195 | 2.6 | 8.7 | 0.00 | 0.00 | 0.00 | 80 | 1024.7 |
| 20260508065553 | 60 | 162 | 3.5 | 9.6 | 0.00 | 0.00 | 0.00 | 80 | 1024.6 |
| 20260508065050 | 60 | 189 | 3.5 | 9.6 | 0.00 | 0.00 | 0.00 | 80 | 1024.6 |
| 20260508064550 | 60 | 180 | 2.6 | 9.6 | 0.00 | 0.00 | 0.00 | 79 | 1024.5 |
| 20260508064057 | 60 | 200 | 3.5 | 8.7 | 0.00 | 0.00 | 0.00 | 78 | 1024.5 |
| 20260508064051 | 60 | 197 | 3.5 | 8.7 | 0.00 | 0.00 | 0.00 | 78 | 1024.5 |
| 20260508063051 | 60 | 171 | 3.5 | 8.7 | 0.00 | 0.00 | 0.00 | 78 | 1024.5 |
| 20260508062550 | 60 | 194 | 2.6 | 8.7 | 0.00 | 0.00 | 0.00 | 79 | 1024.4 |
| 20260508061552 | 60 | 256 | 2.6 | 10.4 | 0.00 | 0.00 | 0.00 | 80 | 1024.3 |
| 20260508061050 | 60 | 212 | 2.6 | 7.8 | 0.00 | 0.00 | 0.00 | 80 | 1024.2 |
| 20260508060550 | 60 | 200 | 3.5 | 10.4 | 0.00 | 0.00 | 0.00 | 80 | 1024.2 |
| 20260508060050 | 60 | 191 | 3.5 | 10.4 | 0.00 | 0.00 | 0.00 | 80 | 1024.3 |
| 20260508055553 | 60 | 214 | 3.5 | 12.2 | 0.00 | 0.00 | 0.00 | 80 | 1024.3 |
| 20260508055050 | 59 | 205 | 3.5 | 12.2 | 0.00 | 0.00 | 0.00 | 81 | 1024.3 |
| 20260508054557 | 59 | 191 | 4.3 | 12.2 | 0.00 | 0.00 | 0.00 | 81 | 1024.1 |
| 20260508054551 | 59 | 175 | 2.6 | 10.4 | 0.00 | 0.00 | 0.00 | 81 | 1024.1 |
| 20260508053547 | 59 | 180 | 5.2 | 12.2 | 0.00 | 0.00 | 0.00 | 80 | 1024.2 |
| 20260508053045 | 60 | 219 | 4.3 | 11.3 | 0.00 | 0.00 | 0.00 | 80 | 1024.2 |
| 20260508052551 | 60 | 216 | 3.5 | 11.3 | 0.00 | 0.00 | 0.00 | 79 | 1024.2 |
| 20260508052546 | 60 | 206 | 3.5 | 11.3 | 0.00 | 0.00 | 0.00 | 79 | 1024.2 |
| 20260508051546 | 60 | 166 | 2.6 | 9.6 | 0.00 | 0.00 | 0.00 | 80 | 1024.1 |
| 20260508051048 | 60 | 165 | 3.5 | 11.3 | 0.00 | 0.01 | 0.00 | 80 | 1024.2 |
| 20260508050546 | 60 | 175 | 3.5 | 11.3 | 0.00 | 0.01 | 0.00 | 79 | 1024.1 |
| 20260508050047 | 60 | 208 | 4.3 | 12.2 | 0.00 | 0.01 | 0.00 | 79 | 1024.1 |
| 20260508045546 | 60 | 151 | 4.3 | 12.2 | 0.00 | 0.01 | 0.00 | 78 | 1024.2 |
| 20260508045046 | 61 | 185 | 4.3 | 12.2 | 0.00 | 0.01 | 0.00 | 77 | 1024.2 |
| 20260508044546 | 60 | 206 | 4.3 | 13.0 | 0.00 | 0.01 | 0.00 | 76 | 1024.2 |
| 20260508044048 | 61 | 191 | 4.3 | 13.0 | 0.00 | 0.01 | 0.00 | 75 | 1024.1 |
| 20260508043547 | 61 | 238 | 3.5 | 11.3 | 0.00 | 0.01 | 0.00 | 73 | 1024.1 |
| 20260508043045 | 61 | 139 | 3.5 | 8.7 | 0.00 | 0.01 | 0.00 | 74 | 1024.1 |
| 20260508042547 | 61 | 185 | 3.5 | 8.7 | 0.00 | 0.01 | 0.00 | 73 | 1024.2 |
| 20260508042213 | 61 | 199 | 3.5 | 8.7 | 0.00 | 0.01 | 0.00 | 74 | 1024.0 |
| 20260508042053 | 61 | 201 | 3.5 | 12.2 | 0.00 | 0.01 | 0.00 | 74 | 1024.0 |
| 20260508042047 | 61 | 185 | 3.5 | 12.2 | 0.00 | 0.01 | 0.00 | 73 | 1024.1 |
| 20260508040548 | 61 | 189 | 2.6 | 9.6 | 0.00 | 0.01 | 0.00 | 75 | 1024.0 |
| 20260508040046 | 60 | 207 | 2.6 | 9.6 | 0.00 | 0.01 | 0.00 | 75 | 1023.9 |
| 20260508035544 | 61 | 235 | 3.5 | 9.6 | 0.00 | 0.01 | 0.00 | 75 | 1024.0 |
| 20260508035044 | 61 | 175 | 2.6 | 9.6 | 0.00 | 0.01 | 0.00 | 75 | 1024.0 |
| 20260508034544 | 61 | 208 | 2.6 | 9.6 | 0.00 | 0.01 | 0.00 | 76 | 1023.9 |
| 20260508034049 | 60 | 202 | 3.5 | 13.9 | 0.00 | 0.01 | 0.00 | 75 | 1023.8 |
| 20260508034044 | 60 | 200 | 2.6 | 13.9 | 0.00 | 0.01 | 0.00 | 76 | 1023.9 |
| 20260508033717 | 60 | 201 | 4.3 | 14.8 | 0.00 | 0.01 | 0.00 | 74 | 1023.8 |
| 20260508032544 | 60 | 207 | 4.3 | 14.8 | 0.00 | 0.01 | 0.00 | 75 | 1023.8 |
| 20260508032046 | 60 | 203 | 4.3 | 10.4 | 0.00 | 0.01 | 0.00 | 76 | 1023.9 |
| 20260508031543 | 61 | 266 | 3.5 | 14.8 | 0.00 | 0.01 | 0.00 | 76 | 1023.8 |
| 20260508031042 | 61 | 255 | 4.3 | 14.8 | 0.00 | 0.01 | 0.00 | 75 | 1024.0 |
| 20260508030543 | 60 | 220 | 3.5 | 9.6 | 0.00 | 0.01 | 0.00 | 74 | 1024.0 |
| 20260508030044 | 60 | 175 | 3.5 | 8.7 | 0.00 | 0.02 | 0.00 | 75 | 1024.0 |
| 20260508025542 | 60 | 189 | 3.5 | 11.3 | 0.00 | 0.03 | 0.00 | 75 | 1024.0 |
| 20260508025041 | 61 | 185 | 3.5 | 11.3 | 0.00 | 0.04 | 0.00 | 76 | 1024.0 |
| 20260508024539 | 61 | 218 | 2.6 | 10.4 | 0.00 | 0.04 | 0.00 | 76 | 1024.0 |
| 20260508024038 | 61 | 185 | 1.7 | 10.4 | 0.00 | 0.04 | 0.00 | 78 | 1023.9 |
| 20260508023536 | 61 | 196 | 1.7 | 7.0 | 0.00 | 0.04 | 0.00 | 80 | 1023.9 |
| 20260508023037 | 60 | 211 | 1.7 | 7.0 | 0.00 | 0.04 | 0.00 | 79 | 1024.1 |
| 20260508022538 | 61 | 203 | 1.7 | 7.0 | 0.00 | 0.04 | 0.00 | 80 | 1024.3 |
| 20260508022036 | 61 | 209 | 1.7 | 8.7 | 0.00 | 0.04 | 0.00 | 79 | 1024.3 |
| 20260508021538 | 61 | 251 | 2.6 | 8.7 | 0.00 | 0.04 | 0.00 | 79 | 1024.5 |
| 20260508021034 | 61 | 218 | 1.7 | 7.0 | 0.00 | 0.04 | 0.00 | 81 | 1024.4 |
| 20260508020536 | 61 | 245 | 2.6 | 7.0 | 0.00 | 0.05 | 0.00 | 81 | 1024.5 |
| 20260508020039 | 60 | 243 | 1.7 | 7.8 | 0.00 | 0.05 | 0.00 | 82 | 1024.5 |
| 20260508020034 | 60 | 242 | 1.7 | 7.0 | 0.00 | 0.05 | 0.00 | 82 | 1024.5 |
| 20260508015033 | 60 | 262 | 2.6 | 8.7 | 0.00 | 0.05 | 0.00 | 82 | 1024.6 |
| 20260508014534 | 60 | 214 | 2.6 | 8.7 | 0.00 | 0.05 | 0.00 | 83 | 1024.6 |
| 20260508014034 | 59 | 213 | 2.6 | 10.4 | 0.00 | 0.05 | 0.00 | 83 | 1024.6 |
| 20260508013532 | 59 | 225 | 2.6 | 10.4 | 0.00 | 0.05 | 0.00 | 83 | 1024.4 |
| 20260508013032 | 59 | 239 | 1.7 | 7.8 | 0.00 | 0.05 | 0.00 | 83 | 1024.3 |
| 20260508012532 | 59 | 214 | 1.7 | 7.8 | 0.00 | 0.05 | 0.00 | 83 | 1024.3 |
| 20260508012033 | 59 | 216 | 1.7 | 7.8 | 0.00 | 0.05 | 0.00 | 82 | 1024.3 |
| 20260508011532 | 59 | 199 | 2.6 | 10.4 | 0.00 | 0.05 | 0.00 | 81 | 1024.4 |
| 20260508011039 | 60 | 210 | 2.6 | 7.8 | 0.00 | 0.05 | 0.00 | 83 | 1024.3 |
| 20260508011033 | 60 | 247 | 2.6 | 10.4 | 0.00 | 0.05 | 0.00 | 80 | 1024.4 |
| 20260508010030 | 60 | 175 | 2.6 | 7.8 | 0.00 | 0.05 | 0.00 | 84 | 1024.3 |
| 20260508005530 | 59 | 207 | 1.7 | 6.1 | 0.00 | 0.06 | 0.00 | 84 | 1024.2 |
| 20260508005030 | 59 | 191 | 2.6 | 9.6 | 0.00 | 0.06 | 0.00 | 84 | 1024.2 |
| 20260508004530 | 59 | 175 | 2.6 | 9.6 | 0.00 | 0.06 | 0.00 | 82 | 1024.2 |
| 20260508004029 | 60 | 251 | 2.6 | 10.4 | 0.00 | 0.06 | 0.00 | 82 | 1024.3 |
| 20260508003529 | 60 | 224 | 2.6 | 10.4 | 0.00 | 0.06 | 0.00 | 82 | 1024.2 |
| 20260508003132 | 60 | 237 | 1.7 | 8.7 | 0.00 | 0.06 | 0.00 | 82 | 1024.2 |
| 20260508002028 | 59 | 199 | 2.6 | 8.7 | 0.00 | 0.06 | 0.00 | 82 | 1023.9 |
| 20260508001526 | 59 | 233 | 2.6 | 12.2 | 0.00 | 0.07 | 0.00 | 82 | 1024.0 |
| 20260508001026 | 59 | 213 | 1.7 | 12.2 | 0.00 | 0.09 | 0.00 | 83 | 1023.9 |
| 20260508000526 | 59 | 213 | 1.7 | 9.6 | 0.00 | 0.09 | 0.00 | 83 | 1023.8 |
| 20260508000026 | 59 | 24 | 2.6 | 9.6 | 0.00 | 0.09 | 0.00 | 84 | 1023.8 |
| 20260507235526 | 58 | 237 | 2.6 | 9.6 | 0.00 | 0.09 | 0.00 | 84 | 1023.9 |
| 20260507235027 | 58 | 209 | 1.7 | 8.7 | 0.00 | 0.09 | 0.00 | 85 | 1023.8 |
| 20260507234531 | 58 | 227 | 1.7 | 7.8 | 0.00 | 0.09 | 0.00 | 86 | 1023.8 |
| 20260507234525 | 58 | 209 | 1.7 | 7.8 | 0.00 | 0.09 | 0.00 | 85 | 1023.8 |
| 20260507233527 | 58 | 227 | 1.7 | 7.0 | 0.00 | 0.11 | 0.00 | 87 | 1023.6 |
| 20260507233521 | 58 | 262 | 1.7 | 7.0 | 0.00 | 0.11 | 0.00 | 86 | 1023.8 |
| 20260507232523 | 57 | 209 | 1.7 | 7.0 | 0.00 | 0.11 | 0.00 | 86 | 1023.6 |
| 20260507232019 | 57 | 226 | 1.7 | 5.2 | 0.00 | 0.11 | 0.00 | 87 | 1023.5 |
| 20260507231520 | 57 | 217 | 1.7 | 5.2 | 0.00 | 0.11 | 0.00 | 88 | 1023.6 |
| 20260507231020 | 57 | 232 | 1.7 | 5.2 | 0.00 | 0.12 | 0.00 | 87 | 1023.4 |
| 20260507230520 | 57 | 215 | 0.9 | 7.8 | 0.00 | 0.12 | 0.00 | 87 | 1023.4 |
| 20260507230017 | 57 | 240 | 1.7 | 7.8 | 0.00 | 0.12 | 0.00 | 88 | 1023.5 |
| 20260507225519 | 57 | 210 | 1.7 | 7.8 | 0.00 | 0.12 | 0.00 | 88 | 1023.6 |
| 20260507225019 | 57 | 226 | 0.9 | 7.0 | 0.00 | 0.13 | 0.00 | 88 | 1023.6 |
| 20260507224515 | 57 | 185 | 0.9 | 7.0 | 0.00 | 0.15 | 0.00 | 88 | 1023.5 |
| 20260507224015 | 57 | 219 | 0.9 | 5.2 | 0.00 | 0.15 | 0.00 | 88 | 1023.4 |
| 20260507223515 | 57 | 241 | 0.9 | 10.4 | 0.00 | 0.15 | 0.00 | 88 | 1023.2 |
| 20260507223015 | 57 | 231 | 1.7 | 10.4 | 0.00 | 0.16 | 0.00 | 88 | 1023.2 |
| 20260507222515 | 56 | 262 | 1.7 | 7.8 | 0.00 | 0.16 | 0.00 | 88 | 1023.2 |
| 20260507222016 | 56 | 219 | 1.7 | 7.8 | 0.00 | 0.16 | 0.00 | 88 | 1023.2 |
| 20260507221517 | 56 | 175 | 0.9 | 5.2 | 0.00 | 0.16 | 0.00 | 89 | 1023.2 |
| 20260507221015 | 56 | 203 | 1.7 | 5.2 | 0.00 | 0.16 | 0.00 | 89 | 1023.2 |
| 20260507220515 | 56 | 235 | 1.7 | 5.2 | 0.00 | 0.16 | 0.00 | 89 | 1023.1 |
| 20260507220015 | 56 | 229 | 0.9 | 5.2 | 0.00 | 0.16 | 0.00 | 89 | 1023.1 |
| 20260507215517 | 56 | 228 | 0.9 | 5.2 | 0.00 | 0.16 | 0.00 | 89 | 1022.9 |
| 20260507215017 | 56 | 316 | 0.9 | 5.2 | 0.00 | 0.16 | 0.00 | 89 | 1022.9 |
| 20260507214515 | 56 | 241 | 0.9 | 7.8 | 0.00 | 0.16 | 0.00 | 89 | 1022.7 |
| 20260507214015 | 56 | 239 | 1.7 | 7.8 | 0.00 | 0.16 | 0.00 | 89 | 1022.6 |
| 20260507213521 | 56 | 242 | 1.7 | 7.8 | 0.00 | 0.17 | 0.00 | 89 | 1022.4 |
| 20260507213515 | 56 | 247 | 1.7 | 7.8 | 0.00 | 0.17 | 0.00 | 89 | 1022.5 |
| 20260507212516 | 56 | 241 | 1.7 | 7.8 | 0.00 | 0.17 | 0.00 | 89 | 1022.4 |
| 20260507212016 | 56 | 205 | 1.7 | 8.7 | 0.00 | 0.17 | 0.00 | 88 | 1022.3 |
| 20260507211521 | 56 | 239 | 1.7 | 9.6 | 0.00 | 0.17 | 0.00 | 88 | 1022.2 |
| 20260507211515 | 56 | 227 | 1.7 | 8.7 | 0.00 | 0.17 | 0.00 | 88 | 1022.3 |
| 20260507211144 | 56 | 264 | 2.6 | 9.6 | 0.00 | 0.18 | 0.00 | 88 | 1022.1 |
| 20260507210515 | 56 | 284 | 1.7 | 9.6 | 0.00 | 0.17 | 0.00 | 88 | 1022.2 |
| 20260507205515 | 56 | 260 | 1.7 | 7.8 | 0.00 | 0.18 | 0.00 | 88 | 1022.1 |
| 20260507205018 | 57 | 215 | 1.7 | 10.4 | 0.00 | 0.19 | 0.00 | 87 | 1021.9 |
| 20260507205013 | 56 | 203 | 1.7 | 7.0 | 0.00 | 0.19 | 0.00 | 87 | 1022.1 |
| 20260507204011 | 57 | 258 | 2.6 | 10.4 | 0.00 | 0.20 | 0.00 | 87 | 1022.0 |
| 20260507203511 | 57 | 245 | 2.6 | 8.7 | 0.00 | 0.20 | 0.00 | 87 | 1021.9 |
| 20260507203011 | 57 | 241 | 2.6 | 10.4 | 0.00 | 0.20 | 0.00 | 87 | 1021.9 |
| 20260507202515 | 57 | 273 | 1.7 | 7.8 | 0.00 | 0.20 | 0.00 | 87 | 1021.7 |
| 20260507202509 | 57 | 270 | 1.7 | 10.4 | 0.00 | 0.20 | 0.00 | 87 | 1021.9 |
| 20260507201516 | 57 | 238 | 2.6 | 10.4 | 0.00 | 0.22 | 0.00 | 86 | 1021.6 |
| 20260507201511 | 57 | 237 | 2.6 | 11.3 | 0.00 | 0.20 | 0.00 | 87 | 1021.7 |
| 20260507201009 | 57 | 249 | 2.6 | 11.3 | 0.00 | 0.21 | 0.00 | 86 | 1021.7 |
| 20260507200008 | 57 | 210 | 2.6 | 8.7 | 0.00 | 0.23 | 0.00 | 86 | 1021.5 |
| 20260507195507 | 57 | 210 | 2.6 | 10.4 | 0.00 | 0.24 | 0.00 | 86 | 1021.5 |
| 20260507195007 | 57 | 245 | 2.6 | 11.3 | 0.00 | 0.24 | 0.00 | 87 | 1021.5 |
| 20260507194509 | 57 | 256 | 1.7 | 10.4 | 0.00 | 0.24 | 0.00 | 87 | 1021.4 |
| 20260507194013 | 57 | 224 | 2.6 | 9.6 | 0.00 | 0.24 | 0.00 | 87 | 1021.3 |
| 20260507194009 | 57 | 180 | 1.7 | 7.8 | 0.00 | 0.24 | 0.00 | 87 | 1021.3 |
| 20260507193638 | 57 | 229 | 2.6 | 11.3 | 0.00 | 0.24 | 0.00 | 87 | 1021.2 |
| 20260507192507 | 57 | 214 | 2.6 | 11.3 | 0.00 | 0.24 | 0.00 | 87 | 1021.2 |
| 20260507192009 | 57 | 253 | 2.6 | 10.4 | 0.00 | 0.24 | 0.00 | 87 | 1021.1 |
| 20260507191507 | 57 | 259 | 1.7 | 7.0 | 0.00 | 0.24 | 0.00 | 87 | 1021.1 |
| 20260507191012 | 57 | 251 | 1.7 | 7.8 | 0.00 | 0.24 | 0.00 | 87 | 1021.1 |
| 20260507191006 | 57 | 210 | 1.7 | 7.0 | 0.00 | 0.24 | 0.00 | 87 | 1021.2 |
| 20260507190636 | 57 | 204 | 1.7 | 7.8 | 0.00 | 0.24 | 0.00 | 87 | 1021.1 |
| 20260507190136 | 57 | 239 | 1.7 | 7.0 | 0.00 | 0.24 | 0.00 | 87 | 1021.1 |
| 20260507185008 | 57 | 207 | 1.7 | 7.8 | 0.00 | 0.25 | 0.00 | 87 | 1021.0 |
| 20260507184507 | 57 | 250 | 1.7 | 7.8 | 0.00 | 0.26 | 0.00 | 87 | 1020.9 |
| 20260507184007 | 57 | 265 | 0.9 | 4.3 | 0.00 | 0.26 | 0.00 | 87 | 1020.9 |
| 20260507183512 | 57 | 226 | 1.7 | 9.6 | 0.00 | 0.26 | 0.00 | 87 | 1020.8 |
| 20260507183506 | 57 | 246 | 0.9 | 6.1 | 0.00 | 0.26 | 0.00 | 87 | 1020.9 |
| 20260507182505 | 57 | 267 | 1.7 | 9.6 | 0.00 | 0.27 | 0.00 | 87 | 1020.8 |
| 20260507182007 | 57 | 229 | 1.7 | 8.7 | 0.00 | 0.28 | 0.00 | 87 | 1020.8 |
| 20260507181504 | 57 | 245 | 0.9 | 8.7 | 0.00 | 0.30 | 0.00 | 87 | 1020.7 |
| 20260507181005 | 57 | 231 | 1.7 | 8.7 | 0.00 | 0.31 | 0.00 | 87 | 1020.7 |
| 20260507180513 | 57 | 193 | 1.7 | 8.7 | 0.00 | 0.31 | 0.00 | 86 | 1020.7 |
| 20260507180506 | 57 | 266 | 1.7 | 8.7 | 0.00 | 0.31 | 0.00 | 87 | 1020.6 |
| 20260507175505 | 57 | 279 | 1.7 | 8.7 | 0.00 | 0.31 | 0.00 | 86 | 1020.5 |
| 20260507175005 | 57 | 185 | 1.7 | 7.8 | 0.00 | 0.31 | 0.00 | 86 | 1020.5 |
| 20260507174509 | 57 | 243 | 1.7 | 10.4 | 0.00 | 0.31 | 0.00 | 86 | 1020.5 |
| 20260507174505 | 57 | 267 | 1.7 | 10.4 | 0.00 | 0.31 | 0.00 | 86 | 1020.4 |
| 20260507173502 | 57 | 314 | 1.7 | 9.6 | 0.00 | 0.31 | 0.00 | 86 | 1020.4 |
| 20260507173009 | 56 | 255 | 1.7 | 8.7 | 0.00 | 0.31 | 0.00 | 86 | 1020.5 |
| 20260507173003 | 56 | 239 | 1.7 | 9.6 | 0.00 | 0.31 | 0.00 | 86 | 1020.6 |
| 20260507172003 | 56 | 281 | 1.7 | 8.7 | 0.00 | 0.31 | 0.00 | 86 | 1020.5 |
| 20260507171503 | 56 | 209 | 1.7 | 8.7 | 0.00 | 0.31 | 0.00 | 86 | 1020.4 |
| 20260507171003 | 56 | 266 | 2.6 | 12.2 | 0.00 | 0.31 | 0.00 | 86 | 1020.5 |
| 20260507170510 | 56 | 283 | 2.6 | 9.6 | 0.00 | 0.31 | 0.00 | 86 | 1020.4 |
| 20260507170502 | 56 | 232 | 2.6 | 12.2 | 0.00 | 0.31 | 0.00 | 86 | 1020.6 |
| 20260507165503 | 56 | 242 | 2.6 | 9.6 | 0.00 | 0.31 | 0.00 | 86 | 1020.5 |
| 20260507165006 | 56 | 273 | 1.7 | 7.8 | 0.00 | 0.31 | 0.00 | 86 | 1020.5 |
| 20260507164505 | 56 | 250 | 1.7 | 8.7 | 0.00 | 0.31 | 0.00 | 85 | 1020.5 |
| 20260507164004 | 56 | 204 | 1.7 | 8.7 | 0.00 | 0.31 | 0.00 | 85 | 1020.6 |
| 20260507163504 | 56 | 274 | 1.7 | 7.8 | 0.00 | 0.31 | 0.00 | 85 | 1020.6 |
| 20260507163009 | 56 | 222 | 1.7 | 11.3 | 0.00 | 0.31 | 0.00 | 85 | 1020.7 |
| 20260507163003 | 56 | 224 | 1.7 | 11.3 | 0.00 | 0.31 | 0.00 | 85 | 1020.6 |
| 20260507162002 | 56 | 248 | 1.7 | 10.4 | 0.00 | 0.31 | 0.00 | 85 | 1020.7 |
| 20260507161503 | 56 | 342 | 1.7 | 10.4 | 0.00 | 0.31 | 0.00 | 85 | 1020.7 |
| 20260507161008 | 56 | 257 | 2.6 | 11.3 | 0.00 | 0.31 | 0.00 | 85 | 1020.7 |
| 20260507161002 | 56 | 256 | 1.7 | 11.3 | 0.00 | 0.31 | 0.00 | 85 | 1020.6 |
| 20260507160002 | 56 | 269 | 1.7 | 9.6 | 0.00 | 0.31 | 0.00 | 85 | 1020.7 |
| 20260507155503 | 56 | 271 | 1.7 | 9.6 | 0.00 | 0.31 | 0.00 | 85 | 1020.8 |
| 20260507155000 | 56 | 226 | 1.7 | 8.7 | 0.00 | 0.31 | 0.00 | 85 | 1020.8 |
| 20260507154500 | 56 | 241 | 1.7 | 8.7 | 0.00 | 0.31 | 0.00 | 85 | 1020.8 |
| 20260507154002 | 56 | 250 | 1.7 | 7.8 | 0.00 | 0.31 | 0.00 | 85 | 1020.9 |
| 20260507153502 | 56 | 310 | 1.7 | 9.6 | 0.00 | 0.31 | 0.00 | 85 | 1020.9 |
| 20260507152959 | 56 | 223 | 1.7 | 11.3 | 0.00 | 0.31 | 0.00 | 85 | 1021.0 |
| 20260507152505 | 56 | 256 | 1.7 | 9.6 | 0.00 | 0.31 | 0.00 | 85 | 1021.2 |
| 20260507152500 | 56 | 204 | 1.7 | 11.3 | 0.00 | 0.31 | 0.00 | 85 | 1021.0 |
| 20260507151958 | 56 | 251 | 1.7 | 6.1 | 0.00 | 0.31 | 0.00 | 85 | 1021.1 |
| 20260507151000 | 56 | 196 | 1.7 | 11.3 | 0.00 | 0.31 | 0.00 | 85 | 1021.2 |
| 20260507150458 | 56 | 224 | 1.7 | 11.3 | 0.00 | 0.31 | 0.00 | 85 | 1021.2 |
| 20260507145958 | 56 | 225 | 1.7 | 8.7 | 0.00 | 0.31 | 0.00 | 85 | 1021.3 |
| 20260507145458 | 56 | 266 | 1.7 | 8.7 | 0.00 | 0.31 | 0.00 | 85 | 1021.3 |
| 20260507144959 | 56 | 276 | 1.7 | 12.2 | 0.00 | 0.31 | 0.00 | 85 | 1021.2 |
| 20260507144458 | 56 | 293 | 1.7 | 12.2 | 0.00 | 0.31 | 0.00 | 85 | 1021.2 |
| 20260507144005 | 55 | 254 | 1.7 | 7.0 | 0.00 | 0.31 | 0.00 | 84 | 1021.5 |
| 20260507143959 | 55 | 262 | 1.7 | 10.4 | 0.00 | 0.31 | 0.00 | 84 | 1021.3 |
| 20260507143000 | 55 | 288 | 1.7 | 7.0 | 0.00 | 0.31 | 0.00 | 84 | 1021.5 |
| 20260507142500 | 55 | 224 | 1.7 | 9.6 | 0.00 | 0.31 | 0.00 | 84 | 1021.5 |
| 20260507142004 | 55 | 220 | 1.7 | 9.6 | 0.00 | 0.31 | 0.00 | 84 | 1021.6 |
| 20260507141959 | 55 | 289 | 1.7 | 9.6 | 0.00 | 0.31 | 0.00 | 84 | 1021.5 |
| 20260507140958 | 55 | 293 | 1.7 | 9.6 | 0.00 | 0.31 | 0.00 | 84 | 1021.6 |
| 20260507140458 | 55 | 260 | 1.7 | 11.3 | 0.00 | 0.31 | 0.00 | 84 | 1021.6 |
| 20260507135957 | 55 | 266 | 1.7 | 11.3 | 0.00 | 0.31 | 0.31 | 84 | 1021.6 |
| 20260507135459 | 55 | 270 | 1.7 | 8.7 | 0.00 | 0.31 | 0.31 | 84 | 1021.6 |
| 20260507134504 | 55 | 282 | 2.6 | 10.4 | 0.00 | 0.31 | 0.31 | 84 | 1021.7 |
| 20260507134458 | 55 | 237 | 1.7 | 7.0 | 0.00 | 0.31 | 0.31 | 84 | 1021.7 |
| 20260507133457 | 55 | 310 | 2.6 | 10.4 | 0.00 | 0.31 | 0.31 | 84 | 1021.8 |
| 20260507132955 | 55 | 241 | 2.6 | 9.6 | 0.00 | 0.31 | 0.31 | 84 | 1021.8 |
| 20260507132455 | 55 | 250 | 2.6 | 8.7 | 0.00 | 0.31 | 0.31 | 84 | 1021.9 |
| 20260507131953 | 55 | 226 | 1.7 | 6.1 | 0.00 | 0.31 | 0.31 | 84 | 1021.8 |
| 20260507131500 | 55 | 251 | 1.7 | 7.8 | 0.00 | 0.31 | 0.31 | 84 | 1022.3 |
| 20260507131455 | 55 | 235 | 1.7 | 7.8 | 0.00 | 0.31 | 0.31 | 84 | 1022.0 |